FW1312 Weather Reports


time (UTC)temp
F
wind
direction
speed
knots
gust
knots
rain 1hr
in
rain 24hr
in
rain mn
in
humidity
%
barometer
mb
20260505181544 79 239 5.2 16.5 0.00 0.00 0.00 86 1007.1
20260505180001 78 218 7.0 19.1 0.00 0.00 0.00 86 1007.1
20260505174607 78 183 4.3 19.1 0.00 0.00 0.00 86 1007.2
20260505173052 77 239 7.0 15.6 0.00 0.00 0.00 86 1007.5
20260505171519 76 180 3.5 13.9 0.00 0.00 0.00 86 1007.6
20260505170104 76 226 4.3 13.0 0.00 0.00 0.00 86 1007.8
20260505164552 76 130 4.3 14.8 0.00 0.00 0.00 86 1007.7
20260505163026 75 236 6.1 17.4 0.00 0.00 0.00 86 1007.8
20260505161508 75 205 7.0 14.8 0.00 0.00 0.00 85 1007.7
20260505153036 73 208 5.2 13.0 0.00 0.00 0.00 85 1008.1
20260505151539 73 232 6.1 17.4 0.00 0.00 0.00 85 1008.0
20260505124542 71 186 4.3 10.4 0.00 0.00 0.00 83 1007.1
20260505123104 71 195 5.2 13.0 0.00 0.00 0.00 83 1007.1
20260505121538 70 225 4.3 10.4 0.00 0.00 0.00 83 1007.1
20260505120058 70 230 4.3 10.4 0.00 0.00 0.00 82 1006.9
20260505114516 70 190 5.2 11.3 0.00 0.00 0.00 82 1006.4
20260505113042 70 213 7.0 17.4 0.00 0.00 0.00 82 1006.8
20260505111540 70 205 6.1 13.9 0.00 0.00 0.00 82 1006.5
20260505031530 73 175 2.6 7.8 0.00 0.00 0.00 71 1008.7
20260505030051 73 182 3.5 8.7 0.00 0.00 0.00 71 1008.5
20260505024534 73 136 3.5 9.6 0.00 0.00 0.00 70 1008.6
20260505023038 73 165 4.3 9.6 0.00 0.00 0.00 70 1008.5
20260505021506 74 137 4.3 9.6 0.00 0.00 0.00 69 1008.4
20260505020008 74 167 5.2 11.3 0.00 0.00 0.00 69 1008.4
20260505014541 75 160 6.1 12.2 0.00 0.00 0.00 69 1008.1
20260505013007 75 159 4.3 10.4 0.00 0.00 0.00 68 1008.2
20260505011501 75 162 5.2 14.8 0.00 0.00 0.00 68 1008.1
20260505010034 76 159 4.3 8.7 0.00 0.00 0.00 67 1008.0
20260505004544 76 150 4.3 11.3 0.00 0.00 0.00 67 1007.9
20260505003033 77 140 4.3 10.4 0.00 0.00 0.00 67 1008.0
20260505001528 77 188 3.5 12.2 0.00 0.00 0.00 67 1008.3
20260505000117 78 161 7.0 13.0 0.00 0.00 0.00 67 1008.3
20260504234530 79 177 5.2 13.0 0.00 0.00 0.00 67 1008.5
20260504233022 79 221 6.1 13.0 0.00 0.00 0.00 67 1008.5
20260504231515 79 138 6.1 12.2 0.00 0.00 0.00 67 1008.5
20260504230044 79 163 5.2 10.4 0.00 0.00 0.00 67 1008.6
20260504224522 79 150 7.0 13.9 0.00 0.00 0.00 67 1008.9
20260504223020 79 131 7.0 13.0 0.00 0.00 0.00 67 1009.0
20260504221509 78 186 4.3 14.8 0.00 0.00 0.00 67 1009.0
20260504220025 78 147 4.3 15.6 0.00 0.00 0.00 67 1009.2
20260504214506 79 127 4.3 13.0 0.00 0.00 0.00 67 1009.3
20260504213104 78 221 4.3 12.2 0.00 0.00 0.00 67 1009.7
20260504211619 79 188 7.0 12.2 0.00 0.00 0.00 67 1009.9
20260504210024 79 195 7.0 12.2 0.00 0.00 0.00 68 1010.3
20260504204555 79 217 6.1 14.8 0.00 0.00 0.00 67 1010.7
20260504203005 79 211 8.7 17.4 0.00 0.00 0.00 68 1010.8
20260504201529 78 150 3.5 13.9 0.00 0.00 0.00 68 1011.0
20260504200019 78 185 4.3 13.9 0.00 0.00 0.00 68 1011.1
20260504194513 78 199 4.3 11.3 0.00 0.00 0.00 69 1011.7
20260504193056 78 219 4.3 9.6 0.00 0.00 0.00 69 1011.9
20260504191526 78 192 4.3 13.9 0.00 0.00 0.00 70 1012.1
20260504190045 78 173 4.3 14.8 0.00 0.00 0.00 70 1012.2
20260504184608 78 226 7.0 17.4 0.00 0.00 0.00 71 1012.4
20260504183028 78 229 5.2 13.9 0.00 0.00 0.00 72 1012.8